Location: Foligno
(42.9600°N, 12.7050°E)
Time: 13:16:44
(UTC+01:00)

ISS - Visible Passes

Search period start: 22 January 2018 00:00
Search period end: 01 February 2018 00:00
Orbit: 402 x 407 km, 51.6° (Epoch: 22 January)

Date Brightness Start Highest point End Pass type
(mag) Time Alt. Az. Time Alt. Az. Time Alt. Az.
24 Jan -2.0 19:01:46 10° SSW 19:03:24 22° S 19:03:24 22° S visible
25 Jan -1.9 18:10:24 10° S 18:12:29 16° SE 18:13:36 14° ESE visible
25 Jan -1.0 19:45:23 10° WSW 19:46:17 17° WSW 19:46:17 17° WSW visible
26 Jan -4.0 18:53:04 10° SW 18:56:17 69° SE 18:56:24 68° SE visible
27 Jan -3.0 18:01:00 10° SSW 18:04:01 36° SE 18:06:25 14° ENE visible
27 Jan -1.5 19:37:27 10° W 19:39:06 23° WNW 19:39:06 23° WNW visible
28 Jan -3.4 18:44:49 10° WSW 18:48:02 54° NNW 18:49:02 36° NNE visible
29 Jan -3.9 17:52:22 10° SW 17:55:37 86° SE 17:58:53 10° ENE visible
29 Jan -1.6 19:29:42 10° WNW 19:31:34 21° NW 19:31:34 21° NW visible
30 Jan -2.4 18:36:53 10° W 18:39:50 31° NNW 18:41:23 20° NNE visible
31 Jan -1.5 19:21:57 10° NW 19:23:48 18° NNW 19:23:48 18° NNW visible
